Location: Calan
(47.8756°N, 3.3225°W)
Time: 07:11:49
(UTC+00:00)

Daily predictions for brighter satellites

Satellite Brightness Start Highest point End
(mag) Time Altitude Azimuth Time Altitude Azimuth Time Altitude Azimuth
SPOT 5 4.0 20:49:15 10° SE 20:53:38 31° ENE 20:57:51 10° N
USA 245 4.5 20:49:18 10° SSE 20:54:21 58° ENE 21:00:15 10° N
Cosmos 1975 Rocket 3.1 20:50:13 10° S 20:54:32 61° E 20:58:53 10° NNE
Cosmos 1802 Rocket 4.5 20:48:56 10° N 20:55:01 48° ENE 21:01:07 10° SSE
Cosmos 1459 Rocket 4.1 20:50:32 10° N 20:56:31 58° ENE 21:02:30 10° SSE
Cosmos 1741 Rocket 4.3 20:56:00 10° NNW 21:01:16 72° WSW 21:06:31 10° SSE
Cosmos 1300 4.2 20:59:56 10° NNE 21:03:00 22° ENE 21:06:02 10° SE
Lacrosse 5 3.9 21:00:21 10° WNW 21:03:57 20° WSW 21:07:33 10° S
Resurs 01 Rocket 2.2 21:01:48 10° S 21:06:08 58° W 21:10:29 10° NNW
Meteor 1-16 Rocket 4.1 21:00:45 10° N 21:06:15 84° E 21:11:35 10° SSE
Ariane Rocket 4.4 21:05:05 10° SSW 21:09:48 37° W 21:14:33 10° NNW
Cosmos 1340 3.6 21:07:54 10° SSE 21:11:13 30° E 21:14:33 10° NNE
Landsat 7 4.3 21:09:02 10° S 21:13:44 61° W 21:18:28 10° NNW
Cosmos 2322 4.1 21:08:52 10° S 21:14:08 42° ESE 21:19:27 10° NE
Aureole 1 Rocket 4.3 21:08:23 10° NNW 21:14:25 85° WSW 21:22:06 10° SSE
Cosmos 2278 Rocket 3.7 21:10:20 10° N 21:15:08 27° NE 21:19:55 10° ESE
COSMOS 2428 3.5 21:11:00 10° SSE 21:15:58 31° ESE 21:20:56 10° NE
SPOT 3 Rocket 4.0 21:10:54 10° S 21:16:00 61° WSW 21:21:11 10° NNW
Cosmos 1844 Rocket 2.9 21:10:53 10° NNW 21:16:34 72° WSW 21:22:12 10° SSE
Cosmos 1867 4.3 21:18:13 10° NNW 21:23:32 47° NE 21:28:47 10° ESE
Cosmos 968 Rocket 4.0 21:24:08 10° NNW 21:29:04 46° ENE 21:33:29 13° SE
Cosmos 1908 3.7 21:27:46 10° NNW 21:31:36 58° W 21:35:22 10° S
JB-3 4.3 21:27:57 10° NNE 21:31:57 75° ESE 21:36:00 10° S
Cosmos 1110 Rocket 4.2 21:28:50 10° SSW 21:34:01 78° WNW 21:39:16 10° NNE
Cosmos 1626 2.0 21:30:26 10° S 21:34:06 87° E 21:37:49 10° N
Cosmos 1544 Rocket 3.7 21:30:31 10° N 21:35:00 83° W 21:39:22 10° S
FALCON 9 DEB 4.0 21:32:20 10° W 21:35:42 54° NNW 21:39:04 10° ENE
Cosmos 2061 Rocket 4.1 21:30:19 10° N 21:36:47 75° E 21:42:50 12° SSE
Cosmos 2123 Rocket 4.1 21:30:41 10° S 21:36:54 65° E 21:43:10 10° NNE
Meteor 2-10 Rocket 4.4 21:34:09 10° N 21:38:48 35° ENE 21:42:36 14° SE
Cosmos 1455 Rocket 4.0 21:35:03 10° NNW 21:39:20 46° W 21:43:35 10° SSW
Cosmos 2233 Rocket 4.4 21:34:32 10° N 21:40:31 50° ENE 21:45:36 14° SSE
ARIANE 5 R/B 2.8 21:38:34 11° S 21:42:47 78° WSW 21:47:19 10° NNW
Cosmos 1346 Rocket 4.0 21:47:03 17° SE 21:49:16 27° E 21:52:40 10° NE
Cosmos 405 2.9 21:47:32 10° NNW 21:51:00 82° W 21:53:33 17° S
ATLAS CENTAUR R/B 2.0 21:46:49 10° NW 21:51:03 54° WSW 21:54:30 16° SSE
Cosmos 2333 4.3 21:47:32 10° SSW 21:53:18 86° WNW 21:59:03 10° NNE
BREEZE-M DEB (TANK) 4.4 21:41:13 10° SSW 21:54:06 35° SSE 21:58:14 10° E
ATLAS 3B R/B 2.6 21:49:21 10° SSW 21:55:54 81° SE 22:02:43 10° NE
SL-4 R/B 2.8 21:54:26 10° SSW 21:58:03 28° SE 22:01:25 10° E
FALCON 9 DEB 2.7 21:56:49 10° WSW 21:59:57 82° SSE 22:03:05 10° ENE
CZ-4B DEB 4.2 22:03:26 23° SSE 22:05:14 77° ENE 22:08:24 10° N
Cosmos 2016 Rocket 4.3 21:59:13 10° NNW 22:05:15 66° W 22:11:00 12° S
Cosmos 2219 Rocket 2.2 22:00:08 10° SSW 22:05:50 86° ESE 22:11:33 10° NNE
Cosmos 1025 Rocket 4.1 22:02:23 10° SSW 22:06:35 45° WNW 22:10:48 10° N
Meteor 2-5 Rocket 3.7 22:01:10 10° S 22:06:37 81° E 22:12:16 10° NNE
Lacrosse 5 rocket 2.2 22:03:49 10° WSW 22:07:21 45° NNW 22:10:50 10° NE
Cosmos 2333 Rocket 2.3 22:01:43 10° SSW 22:07:29 81° WNW 22:13:15 10° NNE
Cosmos 1607 4.4 22:01:09 10° NNW 22:07:30 57° NE 22:12:53 14° ESE
ERS-1 Rocket 3.3 22:04:07 14° S 22:08:23 62° WSW 22:13:25 10° NNW
Geosat 4.3 22:04:47 17° SSE 22:08:35 62° WSW 22:13:35 10° NW
Cosmos 1536 Rocket 3.7 22:05:19 10° SSW 22:09:43 77° W 22:14:10 10° N
Cosmos 2228 3.3 22:07:03 10° N 22:11:25 57° ENE 22:14:06 22° SSE
FALCON 9 DEB 3.3 22:12:27 10° WSW 22:15:31 62° NNW 22:18:36 10° ENE
Cosmos 1725 Rocket 4.4 22:13:38 10° NNW 22:19:42 60° W 22:25:09 13° S
USA 215 3.9 22:15:23 10° ENE 22:21:05 31° SE 22:25:28 16° S
SL-24 R/B 4.3 22:16:17 10° N 22:21:07 89° E 22:24:49 18° S
SL-14 R/B 4.4 22:17:29 10° SSW 22:21:21 44° WNW 22:25:13 10° N
FALCON 9 DEB 3.2 22:20:27 10° WSW 22:23:33 66° NNW 22:26:40 10° ENE
Terra 2.1 22:20:12 18° S 22:23:40 61° WSW 22:28:24 10° NNW
SL-16 R/B 3.9 22:23:55 13° ESE 22:25:29 15° E 22:28:32 10° ENE
FALCON 9 DEB 3.5 22:23:03 10° WSW 22:26:06 56° NNW 22:29:11 10° ENE
Cosmos 2237 Rocket 2.7 22:23:45 21° SSE 22:27:04 41° ESE 22:32:18 10° NE
Cosmos 1455 2.9 22:24:40 10° N 22:28:18 40° ENE 22:29:59 25° SE
Cosmos 1184 Rocket 4.1 22:29:49 23° ESE 22:30:21 24° E 22:33:03 10° NE
Cosmos 2360 Rocket 4.1 22:25:45 10° WSW 22:30:42 31° NW 22:35:41 10° NNE
SPOT 5 4.0 22:27:29 13° SSW 22:31:37 39° W 22:36:10 10° NNW
H-2A R/B 3.5 22:29:14 10° NNE 22:33:20 79° WNW 22:36:19 18° SSW
Cosmos 1503 Rocket 4.1 22:29:17 10° NNW 22:34:41 73° ENE 22:37:58 24° SSE
Meteor 1-24 Rocket 3.9 22:33:33 13° SSW 22:38:24 70° WNW 22:43:57 10° N
Cosmos 1300 4.2 22:35:18 10° NNW 22:38:39 29° W 22:41:15 14° SW
GEOS 3 Rocket 4.2 22:38:08 15° ESE 22:42:29 57° NE 22:47:43 10° NW
ATLAS CENTAUR R/B 3.6 22:40:45 24° SSE 22:43:11 36° ESE 22:52:45 10° NE
Okean 1-7 Rocket 4.2 22:54:15 29° SE 22:55:57 42° E 23:00:08 10° NNE
USA 267 3.8 22:49:34 10° E 22:55:57 58° NNE 23:02:22 10° NW
Cosmos 389 Rocket 3.3 22:53:29 10° NNW 22:56:45 41° W 22:58:04 28° SSW
GENESIS II 4.1 22:54:50 16° SW 22:57:53 86° NW 23:01:49 10° NE
BREEZE-M DEB (TANK) 2.5 22:55:12 10° W 22:58:08 81° NNW 23:05:45 10° ENE
Cosmos 2278 Rocket 2.4 22:54:03 10° NNW 22:59:40 63° WSW 23:02:45 27° S
COSMOS 2428 3.6 22:54:27 10° SW 23:00:01 49° NW 23:05:37 10° NNE
Cosmos 1726 Rocket 3.7 22:57:24 10° NNW 23:01:51 68° W 23:03:59 30° S
Cosmos 2058 Rocket 3.1 22:58:02 10° N 23:02:29 76° E 23:04:24 33° SSE
Centaur D AC-29 4.4 23:00:17 10° WSW 23:06:09 13° SW 23:09:10 11° SSW
Cosmos 2034 Rocket 4.2 23:00:24 10° N 23:06:31 58° ENE 23:10:01 26° SSE
Cosmos 1867 4.5 23:02:03 10° NW 23:07:02 36° WSW 23:09:33 24° SSW
NOSS 0 Rocket 4.0 23:01:54 11° SSW 23:07:57 81° WNW 23:14:14 10° NNE
SJ 16-02 2.6 23:11:05 10° N 23:15:06 34° ENE 23:17:27 20° ESE
Meteor 1-21 Rocket 4.2 23:14:29 28° S 23:17:32 75° E 23:23:18 10° NNE
Cosmos 1777 Rocket 4.1 23:14:55 10° NNW 23:20:14 75° ENE 23:22:56 30° SSE
Spot 4 3.8 23:20:17 33° S 23:22:26 76° WSW 23:27:15 10° NNW
Cosmos 1892 Rocket 3.9 23:21:07 26° SSW 23:23:27 60° WNW 23:27:54 10° N
GP-B 4.4 23:20:31 10° NNE 23:24:24 28° E 23:26:01 23° ESE
Cosmos 1943 Rocket 2.9 23:19:49 10° NNW 23:25:09 47° NE 23:28:53 19° ESE
Meteor 1-4 Rocket 2.8 23:22:26 10° N 23:25:51 54° ENE 23:26:36 43° ESE
Cosmos 1441 Rocket 3.1 23:29:44 42° SSW 23:30:57 84° W 23:34:47 10° N
ALOS 2 2.5 23:35:17 38° SSE 23:36:56 89° ENE 23:41:21 10° NNW
Tsikada Rocket 4.2 23:34:13 29° SSE 23:37:21 60° E 23:43:24 10° NNE
SL-4 R/B 1.9 23:33:21 10° WSW 23:37:24 79° NNW 23:41:09 10° ENE
Cosmos 1980 4.2 23:33:01 13° SW 23:38:04 59° WNW 23:43:43 10° NNE
USA 229 DEB 4.4 23:38:45 26° SSE 23:40:53 32° ESE 23:46:43 10° NE
USA 229 4.4 23:38:54 26° SSE 23:41:00 32° ESE 23:46:49 10° NE
Cosmos 1703 3.6 23:44:02 34° SW 23:45:28 57° WNW 23:49:24 10° N
Lacrosse 5 rocket 3.9 23:44:23 10° WNW 23:47:08 20° N 23:49:51 10° NE
ATLAS 3B R/B 4.3 23:41:22 10° W 23:47:18 33° NNW 23:53:28 10° NE
NOSS 3-1 (C) 3.5 23:46:44 33° S 23:48:49 51° ESE 23:54:47 10° NE
Cosmos 1626 Rocket 3.5 23:49:24 39° S 23:51:02 87° W 23:55:30 10° N
Cosmos 724 4.3 23:45:03 10° NW 23:51:13 75° WSW 23:54:20 30° SSE
Elektron 1 3.6 23:50:22 10° NW 23:53:25 89° SW 23:53:44 69° SE
Cosmos 1408 4.4 23:53:09 18° ESE 23:53:52 19° E 23:56:34 10° NE
OPS 6432 4.4 23:51:12 10° NW 23:54:12 71° NE 23:54:58 48° ESE
